SWA3159 KDCA-KMSY

Flight info

Callsign SWA3159
Flight time N/A
Altitude 38000
Route CLTCH3 MAULS Q40 NIOLA MERDN TRSSH1
Aircraft B737/M-SDE2E3FGHIRWXY/LB1

Departure

Time 2026-04-20 18:34
Airport Ronald Reagan Washington National Airport (KDCA)

Arrival

Time N/A
Airport Louis Armstrong New Orleans International Airport (KMSY)
Time Latitude Longitude Altitude Speed Heading
2026-04-20 17:52 38.84647 -77.04203 23 ft 0 kts 334°
2026-04-20 18:25 38.84637 -77.04197 23 ft 4 kts 334°
2026-04-20 18:25 38.84613 -77.04184 27 ft 4 kts 348°
2026-04-20 18:25 38.84588 -77.04183 27 ft 4 kts 27°
2026-04-20 18:25 38.84576 -77.04200 26 ft 1 kts 78°
2026-04-20 18:26 38.84575 -77.04205 25 ft 0 kts 78°
2026-04-20 18:29 38.84576 -77.04197 23 ft 2 kts 78°
2026-04-20 18:29 38.84580 -77.04175 24 ft 3 kts 78°
2026-04-20 18:29 38.84585 -77.04141 23 ft 5 kts 78°
2026-04-20 18:29 38.84595 -77.04095 27 ft 6 kts 69°
2026-04-20 18:30 38.84604 -77.04039 23 ft 7 kts 111°
2026-04-20 18:30 38.84560 -77.04019 27 ft 7 kts 175°
2026-04-20 18:30 38.84513 -77.04010 27 ft 7 kts 169°
2026-04-20 18:30 38.84466 -77.03999 27 ft 7 kts 169°
2026-04-20 18:31 38.84410 -77.03987 27 ft 9 kts 171°
2026-04-20 18:31 38.84343 -77.03953 25 ft 12 kts 137°
2026-04-20 18:31 38.84298 -77.03862 25 ft 11 kts 136°
2026-04-20 18:31 38.84240 -77.03813 23 ft 6 kts 139°
2026-04-20 18:32 38.84226 -77.03793 27 ft 1 kts 126°
2026-04-20 18:32 38.84222 -77.03784 27 ft 3 kts 124°
2026-04-20 18:32 38.84198 -77.03736 24 ft 10 kts 124°
2026-04-20 18:32 38.84190 -77.03688 24 ft 5 kts 58°
2026-04-20 18:33 38.84225 -77.03681 25 ft 5 kts 354°
2026-04-20 18:33 38.84297 -77.03688 22 ft 31 kts 355°
2026-04-20 18:33 38.84835 -77.03744 23 ft 120 kts 355°
2026-04-20 18:33 38.85887 -77.03817 327 ft 167 kts 353°
2026-04-20 18:34 38.86665 -77.03866 1067 ft 170 kts 351°
2026-04-20 18:34 38.87795 -77.04310 2066 ft 181 kts 321°
2026-04-20 18:34 38.89123 -77.05875 3062 ft 204 kts 318°
2026-04-20 18:34 38.90099 -77.07201 4096 ft 212 kts 303°
2026-04-20 18:35 38.90863 -77.08974 4851 ft 235 kts 300°
2026-04-20 18:35 38.91726 -77.10748 5824 ft 243 kts 315°
2026-04-20 18:35 38.93123 -77.11954 7044 ft 242 kts 327°
2026-04-20 18:35 38.94594 -77.13076 8029 ft 250 kts 327°
2026-04-20 18:36 38.96016 -77.14394 8976 ft 255 kts 309°
2026-04-20 18:36 38.96915 -77.16343 10074 ft 256 kts 289°
2026-04-20 18:36 38.97373 -77.18617 10731 ft 275 kts 282°
2026-04-20 18:36 38.97728 -77.21152 11128 ft 299 kts 280°
2026-04-20 18:37 38.98037 -77.23821 12059 ft 304 kts 273°
2026-04-20 18:37 38.97698 -77.26507 13247 ft 307 kts 254°
2026-04-20 18:37 38.97427 -77.27370 13654 ft 309 kts 250°
2026-04-20 18:37 38.96706 -77.28969 14317 ft 317 kts 239°
2026-04-20 18:38 38.93850 -77.32130 15826 ft 334 kts 222°
2026-04-20 18:38 38.91269 -77.34432 17076 ft 340 kts 221°
2026-04-20 18:38 38.89306 -77.36162 17984 ft 344 kts 222°
2026-04-20 18:38 38.87336 -77.37911 18919 ft 344 kts 223°
2026-04-20 18:39 38.85369 -77.39668 19761 ft 346 kts 223°
2026-04-20 18:39 38.83390 -77.41450 20526 ft 350 kts 223°
2026-04-20 18:39 38.81389 -77.43257 21304 ft 353 kts 224°
2026-04-20 18:39 38.79410 -77.45045 22072 ft 356 kts 224°
2026-04-20 18:40 38.77371 -77.46888 22825 ft 360 kts 224°
2026-04-20 18:40 38.75310 -77.48749 23568 ft 364 kts 224°
2026-04-20 18:40 38.73250 -77.50649 24211 ft 364 kts 227°
2026-04-20 18:40 38.71447 -77.52888 24771 ft 361 kts 235°
2026-04-20 18:41 38.70331 -77.54468 25136 ft 363 kts 236°
2026-04-20 18:41 38.68655 -77.56903 25612 ft 367 kts 236°
2026-04-20 18:41 38.67521 -77.58549 26149 ft 363 kts 236°
2026-04-20 18:41 38.65837 -77.60971 26690 ft 368 kts 236°
2026-04-20 18:42 38.63529 -77.64260 27142 ft 380 kts 236°
2026-04-20 18:42 38.61739 -77.66780 27657 ft 384 kts 235°
2026-04-20 18:42 38.59932 -77.69309 28182 ft 387 kts 235°
2026-04-20 18:42 38.58106 -77.71859 28664 ft 391 kts 234°
2026-04-20 18:43 38.56258 -77.74438 29127 ft 395 kts 234°
2026-04-20 18:43 38.54390 -77.77045 29580 ft 399 kts 234°
2026-04-20 18:43 38.52504 -77.79673 30032 ft 403 kts 234°
2026-04-20 18:43 38.49992 -77.83204 30546 ft 408 kts 234°
2026-04-20 18:44 38.48082 -77.85897 30875 ft 409 kts 234°
2026-04-20 18:44 38.46177 -77.88576 31413 ft 407 kts 234°
2026-04-20 18:44 38.44289 -77.91283 31800 ft 407 kts 237°
2026-04-20 18:44 38.42572 -77.94154 32140 ft 406 kts 240°
2026-04-20 18:45 38.41496 -77.96107 32359 ft 407 kts 242°
2026-04-20 18:45 38.39892 -77.99104 32560 ft 411 kts 242°
2026-04-20 18:45 38.38277 -78.02128 32915 ft 413 kts 242°
2026-04-20 18:45 38.36659 -78.05120 33416 ft 410 kts 242°
2026-04-20 18:46 38.34468 -78.09114 34029 ft 409 kts 241°
2026-04-20 18:46 38.32829 -78.12074 34350 ft 410 kts 241°
2026-04-20 18:46 38.31178 -78.15045 34602 ft 412 kts 241°
2026-04-20 18:46 38.29518 -78.18025 34880 ft 413 kts 241°
2026-04-20 18:47 38.27857 -78.21001 35170 ft 412 kts 241°
2026-04-20 18:47 38.26196 -78.23975 35459 ft 412 kts 241°
2026-04-20 18:47 38.25092 -78.25951 35608 ft 414 kts 241°
2026-04-20 18:47 38.23419 -78.28945 35823 ft 416 kts 241°
2026-04-20 18:48 38.21742 -78.31945 36092 ft 416 kts 240°
2026-04-20 18:48 38.20630 -78.33931 36268 ft 416 kts 240°
2026-04-20 18:49 38.15665 -78.45343 37133 ft 410 kts 253°
2026-04-20 18:49 38.14652 -78.48683 37345 ft 411 kts 253°
2026-04-20 18:49 38.13611 -78.52081 37523 ft 414 kts 253°
2026-04-20 18:49 38.12556 -78.55494 37703 ft 416 kts 252°
2026-04-20 18:50 38.11491 -78.58915 37946 ft 416 kts 252°
2026-04-20 18:50 38.10420 -78.62341 38182 ft 417 kts 252°
2026-04-20 18:50 38.08266 -78.69204 38235 ft 419 kts 252°
2026-04-20 18:51 38.06105 -78.76068 38243 ft 418 kts 252°
2026-04-20 18:51 38.03948 -78.82907 38245 ft 417 kts 252°
2026-04-20 18:52 38.01796 -78.89717 38248 ft 416 kts 252°
2026-04-20 18:52 37.99636 -78.96535 38237 ft 416 kts 252°
2026-04-20 18:53 37.98922 -78.98788 38241 ft 416 kts 252°
2026-04-20 18:53 37.95304 -79.10162 38185 ft 417 kts 253°
2026-04-20 18:54 37.93132 -79.16973 38116 ft 417 kts 253°
2026-04-20 18:54 37.91322 -79.22634 38072 ft 416 kts 253°
2026-04-20 18:55 37.88792 -79.30528 38006 ft 416 kts 253°
2026-04-20 18:55 37.86162 -79.37080 37969 ft 422 kts 244°
2026-04-20 18:56 37.83466 -79.42302 37953 ft 423 kts 243°
2026-04-20 18:56 37.80213 -79.48507 37955 ft 422 kts 243°
2026-04-20 18:57 37.77016 -79.54716 37970 ft 421 kts 244°
2026-04-20 18:57 37.73339 -79.61936 38029 ft 420 kts 244°
2026-04-20 18:58 37.70187 -79.68131 38094 ft 419 kts 244°
2026-04-20 18:58 37.68607 -79.71234 38213 ft 420 kts 244°
2026-04-20 18:58 37.67029 -79.74329 38236 ft 420 kts 244°
2026-04-20 18:59 37.65446 -79.77430 38228 ft 420 kts 244°
2026-04-20 18:59 37.60732 -79.86646 38251 ft 421 kts 244°
2026-04-20 19:00 37.57546 -79.92861 38258 ft 423 kts 244°
2026-04-20 19:00 37.54892 -79.98028 38272 ft 422 kts 244°
2026-04-20 19:01 37.51692 -80.04246 38235 ft 423 kts 244°
2026-04-20 19:01 37.48482 -80.10473 38252 ft 424 kts 244°
2026-04-20 19:02 37.45261 -80.16710 38226 ft 425 kts 244°
2026-04-20 19:02 37.41507 -80.23963 38259 ft 424 kts 244°
2026-04-20 19:03 37.38825 -80.29135 38256 ft 424 kts 244°
2026-04-20 19:03 37.35575 -80.35396 38273 ft 426 kts 244°
2026-04-20 19:04 37.32349 -80.41598 38240 ft 427 kts 244°
2026-04-20 19:04 37.29099 -80.47834 38263 ft 427 kts 244°
2026-04-20 19:05 37.25881 -80.54111 38255 ft 426 kts 246°
2026-04-20 19:05 37.22841 -80.60471 38275 ft 425 kts 246°
2026-04-20 19:06 37.21844 -80.62580 38253 ft 425 kts 246°